Regional Weather Roundup
Issued by NWS Cleveland, OH

Home | Current Version | Previous Version | Graphics & Text | Print | Product List | Glossary On
Versions: 1 2 3 4 5 6 7 8 9 10 11 12 13 14 15 16 17 18 19 20 21 22 23 24 25 26 27 28 29 30 31 32 33 34 35 36 37 38 39 40 41 42 43 44 45 46 47 48 49 50
000
ASUS41 KCLE 240310
RWRCLE
OHIO REGIONAL WEATHER ROUNDUP
NATIONAL WEATHER SERVICE WILMINGTON, OH
1100 PM EDT WED AUG 23 2017

NOTE: "FAIR" INDICATES FEW OR NO CLOUDS BELOW 12,000 FEET WITH NO
SIGNIFICANT WEATHER AND/OR OBSTRUCTIONS TO VISIBILITY.

OHZ001>008-015>018-024>027-034-035-043-044-240400-
   NORTHWEST OHIO

CITY           SKY/WX    TMP DP  RH WIND       PRES   REMARKS
DEFIANCE       FAIR      59  51  75 CALM      30.01R
FINDLAY        FAIR      63  50  62 NW6       29.99R
TOLEDO EXPRESS FAIR      62  53  72 W6        29.99R
TOLEDO EXEC    FAIR      61  53  75 W6        29.99R
LIMA           FAIR      61  54  77 NW7       30.01R
$$

OHZ009>014-019>023-028>033-038-089-240400-
   NORTHEAST OHIO

CITY           SKY/WX    TMP DP  RH WIND       PRES   REMARKS
CLE-HOPKINS    FAIR      65  57  75 SW5       29.97S
CLE-LAKEFRONT  FAIR      69  55  60 N3        29.95R
CUY CO. ARPT   PTCLDY    63  55  77 CALM      29.96S
LORAIN-ELYRIA  MOCLDY    61  55  81 SW5       29.97S
ASHTABULA      FAIR      58  57  97 CALM      29.98R
AKRON-CANTON   FAIR      63  53  70 CALM      29.98S
WOOSTER        FAIR      57  56  96 CALM      29.99R
MANSFIELD      FAIR      63  54  72 W6        29.99S
YOUNGSTOWN     FAIR      57  55  93 CALM      29.97S
$$

OHZ042-051>053-060>062-070>072-077>081-240400-
  SOUTHWEST OHIO

CITY           SKY/WX    TMP DP  RH WIND       PRES   REMARKS
CINC-COVINGTON FAIR      67  54  63 NW8       30.01R
CINC-LUNKEN    FAIR      61  58  90 CALM      30.01R
HAMILTON       FAIR      58  57  97 CALM      30.02R
DAYTON         FAIR      63  52  67 NW7       30.02S
WRIGHT-PAT AFB FAIR      66  55  67 NW5       30.00S
DAYTON GENERAL FAIR      65  53  65 N6        30.01R
WILMINGTON     FAIR      65  54  67 NW5       30.01R
$$

OHZ036-037-039>041-045>050-054>059-063>069-073>076-082>088-240400-
  CENTRAL AND SOUTHEAST OHIO

CITY           SKY/WX    TMP DP  RH WIND       PRES   REMARKS
COLUMBUS       FAIR      66  55  67 W3        29.98S
OSU AIRPORT    FAIR      63  56  78 W3        29.99R
BOLTON FIELD   FAIR      60  56  85 W7        30.00S
RICKENBACK AFB FAIR      63  56  77 CALM      29.99R
NEWARK         MOCLDY    60  57  89 CALM      29.98S
MARION         FAIR      63  53  70 NW7       30.00R
LANCASTER      FAIR      58  56  93 CALM      29.99S
ZANESVILLE     FAIR      62  57  83 CALM      29.98S
NEW PHILLY     FAIR      59  58  96 CALM      29.99R
$$




USA.gov is the U.S. government's official web portal to all federal, state and local government web resources and services.